Weather History for KHYR - January, 2014

Change the Weather History Date:

Thursday, January 30, 2014

  Actual Average Record
Temperature  
Mean Temperature 10 °F -  
Max Temperature 21 °F 34 °F - (-1)
Min Temperature -5 °F 12 °F - (-1)
Degree Days  
Heating Degree Days 56    
Moisture  
Dew Point 7 °F    
Average Humidity 76    
Maximum Humidity 88    
Minimum Humidity 51    
Precipitation  
Precipitation 0.16 in - - ()
Sea Level Pressure  
Sea Level Pressure 29.63 in    
Wind  
Wind Speed 2 mph (NW)    
Max Wind Speed 7 mph    
Max Gust Speed -    
Visibility 4 miles    
Events Fog , Snow    
Averages and records for this station are not official NWS values.
T = Trace of Precipitation, MM = Missing Value Source: NWS Daily Summary

Daily Weather History Graph

Daily Weather History Graph

Search for Another Location

Airport or City:

Trip Planner

Search our weather history database for the weather conditions in past years. The results will help you decide how hot, cold, wet, or windy it might be!

Date:

Astronomy

Jan. 30, 2014 Rise Set
Actual Time 7:30 AM CST 5:08 PM CST
Civil Twilight 6:58 AM CST 5:40 PM CST
Nautical Twilight 6:22 AM CST 6:16 PM CST
Astronomical Twilight 5:47 AM CST 6:51 PM CST
Moon 6:54 AM CST (1/30) 5:23 PM CST (1/30)
Length of Visible Light 10h 42m
Length of Day
9h 37m
Waning Crescent, 0% of the Moon is Illuminated
Jan 30
Waning Crescent
Jan 30
New
Feb 6
First Quarter
Feb 14
Full
Feb 22
Last Quarter

Hourly Weather History & Observations

Time (CST) Temp. Windchill Dew Point Humidity Pressure Visibility Wind Dir Wind Speed Gust Speed Precip Events Conditions
12:53 AM 21.9 °F 17.2 °F 12.0 °F 66% 29.59 in 10.0 mi WSW 3.5 mph - N/A   Clear
1:53 AM 16.0 °F - 10.9 °F 81% 29.59 in 10.0 mi Calm Calm - N/A   Mostly Cloudy
2:53 AM 18.0 °F - 10.9 °F 74% 29.59 in 10.0 mi Calm Calm - N/A   Overcast
3:53 AM 18.0 °F - 12.0 °F 78% 29.59 in 6.0 mi Calm Calm - N/A   Haze
4:10 AM 18.0 °F - 12.9 °F 81% 29.52 in 2.0 mi Calm Calm - 0.00 in Snow Light Snow
4:23 AM 18.0 °F - 12.9 °F 81% 29.52 in 1.5 mi Calm Calm - 0.00 in Snow Light Snow
4:49 AM 19.4 °F - 14.0 °F 80% 29.52 in 2.0 mi Calm Calm - 0.00 in Snow Light Snow
4:53 AM 18.0 °F - 15.1 °F 88% 29.58 in 1.8 mi Calm Calm - 0.00 in Snow Light Snow
5:17 AM 19.0 °F - 15.1 °F 85% 29.51 in 2.5 mi Calm Calm - 0.00 in Snow Light Snow
5:25 AM 19.0 °F - 15.1 °F 85% 29.51 in 3.0 mi Calm Calm - 0.00 in Snow Light Snow
5:32 AM 19.0 °F - 15.1 °F 85% 29.51 in 2.5 mi Calm Calm - 0.00 in Snow Light Snow
5:50 AM 19.4 °F - 15.8 °F 86% 29.51 in 1.8 mi Calm Calm - 0.01 in Snow Light Snow
5:53 AM 19.0 °F - 15.1 °F 85% 29.58 in 1.5 mi Calm Calm - 0.01 in Snow Light Snow
6:27 AM 19.0 °F - 15.1 °F 85% 29.51 in 1.0 mi Calm Calm - 0.00 in Snow Light Snow
6:43 AM 18.0 °F 12.7 °F 14.0 °F 84% 29.52 in 1.2 mi Variable 3.5 mph - 0.01 in Snow Light Snow
6:53 AM 18.0 °F 11.1 °F 14.0 °F 84% 29.60 in 1.2 mi Variable 4.6 mph - 0.01 in Snow Light Snow
7:09 AM 17.1 °F 10.0 °F 12.9 °F 84% 29.53 in 1.0 mi Variable 4.6 mph - 0.01 in Snow Light Snow
7:49 AM 15.8 °F 8.6 °F 10.4 °F 79% 29.53 in 0.8 mi Variable 4.6 mph - 0.03 in Snow Light Snow
7:53 AM 15.1 °F 7.7 °F 10.9 °F 84% 29.60 in 0.8 mi Variable 4.6 mph - 0.03 in Snow Light Snow
8:00 AM 15.1 °F 7.7 °F 10.0 °F 80% 29.54 in 1.0 mi North 4.6 mph - 0.00 in Snow Light Snow
8:23 AM 14.0 °F 6.5 °F 10.0 °F 84% 29.54 in 1.2 mi NNE 4.6 mph - 0.01 in Snow Light Snow
8:46 AM 14.0 °F 8.2 °F 10.0 °F 84% 29.55 in 1.0 mi Variable 3.5 mph - 0.02 in Snow Light Snow
8:53 AM 14.0 °F 8.2 °F 10.0 °F 84% 29.62 in 0.8 mi Variable 3.5 mph - 0.02 in Snow Light Snow
9:02 AM 14.0 °F 8.2 °F 9.0 °F 80% 29.55 in 0.5 mi Variable 3.5 mph - 0.01 in Snow Snow
9:53 AM 12.9 °F 5.2 °F 9.0 °F 84% 29.62 in 0.5 mi Variable 4.6 mph - 0.04 in Fog , Snow Snow
10:07 AM 12.9 °F 6.9 °F 9.0 °F 84% 29.56 in 0.5 mi Variable 3.5 mph - 0.01 in Fog , Snow Snow
10:18 AM 12.9 °F 6.9 °F 9.0 °F 84% 29.56 in 0.5 mi Variable 3.5 mph - 0.02 in Fog , Snow Snow
10:53 AM 14.0 °F 8.2 °F 9.0 °F 80% 29.63 in 0.5 mi Variable 3.5 mph - 0.03 in Snow Snow
11:53 AM 12.9 °F 5.2 °F 8.1 °F 81% 29.64 in 0.5 mi Variable 4.6 mph - 0.01 in Snow Snow
12:32 PM 14.0 °F 5.1 °F 8.1 °F 77% 29.56 in 1.0 mi Variable 5.8 mph - 0.01 in Snow Light Snow
12:38 PM 15.1 °F 6.4 °F 7.0 °F 70% 29.56 in 2.0 mi Variable 5.8 mph - 0.01 in Snow Light Snow
12:48 PM 15.8 °F 8.6 °F 8.6 °F 73% 29.56 in 5.0 mi Variable 4.6 mph - 0.01 in Snow Light Snow
12:53 PM 16.0 °F 8.8 °F 7.0 °F 68% 29.63 in 9.0 mi Variable 4.6 mph - 0.01 in   Overcast
1:53 PM 17.1 °F 7.6 °F 3.9 °F 56% 29.65 in 10.0 mi Variable 6.9 mph - N/A   Scattered Clouds
2:53 PM 16.0 °F 7.4 °F 3.0 °F 57% 29.68 in 10.0 mi Variable 5.8 mph - N/A   Clear
3:53 PM 15.1 °F 7.7 °F -0.0 °F 51% 29.73 in 10.0 mi Variable 4.6 mph - N/A   Clear
4:53 PM 12.0 °F 2.7 °F -2.0 °F 53% 29.76 in 10.0 mi Variable 5.8 mph - N/A   Clear
5:53 PM 9.0 °F 2.4 °F -4.0 °F 56% 29.80 in 10.0 mi NNW 3.5 mph - N/A   Clear
6:53 PM 6.1 °F -0.9 °F -5.1 °F 60% 29.83 in 10.0 mi Variable 3.5 mph - N/A   Clear
7:53 PM 1.9 °F - -6.0 °F 69% 29.88 in 10.0 mi Calm Calm - N/A   Clear
8:53 PM -0.0 °F - -8.0 °F 69% 29.93 in 10.0 mi Calm Calm - N/A   Clear
9:53 PM -0.9 °F - -9.9 °F 66% 29.95 in 10.0 mi Calm Calm - N/A   Clear
10:53 PM -2.0 °F -12.2 °F -11.0 °F 66% 29.99 in 10.0 mi West 4.6 mph - N/A   Clear
11:53 PM -5.1 °F -13.6 °F -13.0 °F 69% 30.01 in 10.0 mi WSW 3.5 mph - N/A   Clear